Pierre, SD

3:42 PM CST on December 13, 2017 (GMT -0600)
Pierre Regional

Weather History for KPIR - August, 2013

Change the Weather History Date:

Thursday, August 15, 2013

  Actual Average Record
Temperature  
Mean Temperature 66 °F 74 °F  
Max Temperature 74 °F 88 °F 114 °F (1988)
Min Temperature 57 °F 61 °F 52 °F (1959)
Degree Days  
Heating Degree Days 0 0  
Month to date heating degree days 0 0  
Since 1 June heating degree days 69 59  
Since 1 July heating degree days 9 6  
Cooling Degree Days 1 10  
Month to date cooling degree days 62 158  
Year to date cooling degree days 469 651  
Since 1 June cooling degree days 447 619  
Growing Degree Days 15 (Base 50)    
Moisture  
Dew Point 58 °F    
Average Humidity 79    
Maximum Humidity 100    
Minimum Humidity 57    
Precipitation  
Precipitation 0.00 in 0.05 in 1.64 in (2009)
Month to date precipitation 2.47 0.99  
Year to date precipitation 16.87 14.37  
Sea Level Pressure  
Sea Level Pressure 30.05 in    
Wind  
Wind Speed 7 mph (ESE)    
Max Wind Speed 14 mph    
Max Gust Speed 18 mph    
Visibility 8 miles    
Events      
T = Trace of Precipitation, MM = Missing Value Source: NWS Daily Summary

Daily Weather History Graph

Daily Weather History Graph

Search for Another Location

Airport or City:

Trip Planner

Search our weather history database for the weather conditions in past years. The results will help you decide how hot, cold, wet, or windy it might be!

Date:

Astronomy

Aug. 15, 2013 Rise Set
Actual Time 6:44 AM CDT 8:45 PM CDT
Civil Twilight 6:13 AM CDT 9:17 PM CDT
Nautical Twilight 5:34 AM CDT 9:55 PM CDT
Astronomical Twilight 4:51 AM CDT 10:37 PM CDT
Moon 4:09 PM CDT (8/15) 12:52 AM CDT (8/15)
Length of Visible Light 15h 04m
Length of Day
14h 01m
Waxing Gibbous, 64% of the Moon is Illuminated
Aug 15
Waxing Gibbous
Aug 20
Full
Aug 28
Last Quarter
Sep 5
New
Sep 12
First Quarter

Hourly Weather History & Observations

Time (CDT) Temp. Dew Point Humidity Pressure Visibility Wind Dir Wind Speed Gust Speed Precip Events Conditions
12:00 AM 60.8 °F 57.2 °F 88% 30.08 in 10.0 mi ESE 6.9 mph - N/A   Mostly Cloudy
12:13 AM 59.0 °F 57.2 °F 94% 30.08 in 10.0 mi SE 5.8 mph - N/A   Scattered Clouds
12:53 AM 59.0 °F 57.0 °F 93% 30.05 in 10.0 mi SE 6.9 mph - N/A   Scattered Clouds
1:53 AM 57.9 °F 57.0 °F 97% 30.04 in 10.0 mi East 4.6 mph - N/A   Clear
2:18 AM 59.0 °F 57.2 °F 94% 30.05 in 10.0 mi SE 5.8 mph - N/A   Mostly Cloudy
2:53 AM 60.1 °F 59.0 °F 96% 30.02 in 8.0 mi SE 6.9 mph - N/A   Overcast
3:44 AM 59.0 °F 57.2 °F 94% 30.04 in 6.0 mi SE 6.9 mph - N/A   Scattered Clouds
3:53 AM 57.9 °F 57.9 °F 100% 30.02 in 4.0 mi ESE 5.8 mph - N/A   Partly Cloudy
4:11 AM 57.2 °F 57.2 °F 100% 30.04 in 3.0 mi ESE 5.8 mph - N/A   Scattered Clouds
4:23 AM 60.8 °F 59.0 °F 94% 30.04 in 3.0 mi ESE 5.8 mph - N/A   Mostly Cloudy
4:50 AM 60.8 °F 59.0 °F 94% 30.04 in 5.0 mi SE 8.1 mph - N/A   Overcast
4:53 AM 60.1 °F 59.0 °F 96% 30.01 in 5.0 mi SE 6.9 mph - N/A   Overcast
5:20 AM 60.8 °F 59.0 °F 94% 30.03 in 8.0 mi ESE 6.9 mph - N/A   Overcast
5:53 AM 61.0 °F 59.0 °F 93% 30.00 in 7.0 mi East 8.1 mph - N/A   Overcast
6:02 AM 60.8 °F 59.0 °F 94% 30.03 in 6.0 mi East 8.1 mph - N/A   Overcast
6:53 AM 60.1 °F 59.0 °F 96% 30.02 in 6.0 mi East 3.5 mph - N/A   Overcast
7:01 AM 60.8 °F 59.0 °F 94% 30.05 in 6.0 mi East 3.5 mph - N/A   Overcast
7:11 AM 60.8 °F 59.0 °F 94% 30.05 in 4.0 mi Calm Calm - N/A   Overcast
7:41 AM 60.8 °F 59.0 °F 94% 30.06 in 5.0 mi East 3.5 mph - N/A   Overcast
7:53 AM 61.0 °F 59.0 °F 93% 30.04 in 5.0 mi East 4.6 mph - N/A   Overcast
8:25 AM 60.8 °F 60.8 °F 100% 30.06 in 5.0 mi East 5.8 mph - N/A   Overcast
8:48 AM 62.6 °F 60.8 °F 94% 30.07 in 5.0 mi East 6.9 mph - N/A   Overcast
8:53 AM 61.0 °F 59.0 °F 93% 30.06 in 5.0 mi East 5.8 mph - N/A   Overcast
9:53 AM 62.1 °F 59.0 °F 90% 30.07 in 7.0 mi East 8.1 mph - N/A   Overcast
10:53 AM 63.0 °F 59.0 °F 87% 30.06 in 9.0 mi ESE 8.1 mph - N/A   Overcast
11:04 AM 64.4 °F 59.0 °F 83% 30.07 in 10.0 mi ESE 8.1 mph - N/A   Overcast
11:53 AM 66.9 °F 59.0 °F 76% 30.05 in 10.0 mi ESE 9.2 mph - N/A   Overcast
12:53 PM 69.1 °F 57.9 °F 68% 30.05 in 10.0 mi ESE 10.4 mph - N/A   Overcast
1:53 PM 70.0 °F 57.9 °F 65% 30.04 in 10.0 mi ESE 9.2 mph - N/A   Overcast
2:53 PM 73.0 °F 57.9 °F 59% 30.04 in 10.0 mi SE 8.1 mph - N/A   Mostly Cloudy
3:53 PM 72.0 °F 57.9 °F 61% 30.05 in 10.0 mi ESE 10.4 mph - N/A   Clear
4:53 PM 72.0 °F 57.9 °F 61% 30.04 in 10.0 mi SE 9.2 mph - N/A   Clear
5:53 PM 72.0 °F 59.0 °F 64% 30.04 in 10.0 mi SSE 11.5 mph - N/A   Clear
6:53 PM 71.1 °F 57.9 °F 63% 30.05 in 10.0 mi SE 9.2 mph - N/A   Clear
7:53 PM 69.1 °F 57.9 °F 68% 30.05 in 10.0 mi SSE 8.1 mph - N/A   Clear
8:53 PM 64.0 °F 57.9 °F 80% 30.06 in 10.0 mi SSE 4.6 mph - N/A   Clear
9:53 PM 61.0 °F 57.0 °F 87% 30.08 in 10.0 mi Calm Calm - N/A   Clear
10:53 PM 60.1 °F 57.0 °F 90% 30.10 in 10.0 mi SE 5.8 mph - N/A   Clear